Hourly Weather Roundup
Issued by NWS Central Illinois

Home | Current Version | Previous Version | Text Only | Print | Product List | Glossary On
Versions: 1 2 3 4 5 6 7 8 9 10 11 12 13 14 15 16 17 18 19 20 21 22 23 24 25 26 27 28 29 30 31 32 33 34 35 36 37 38 39 40 41 42 43 44 45 46 47 48 49 50
000
NZUS43 KILX 202210
HWRILX

Area Weather Roundup
National Weather Service Lincoln IL
500 PM CDT THU JUL 20 2017

NOTE:  "FAIR" indicates few or no clouds below 12,000 feet, with
       no sigificant weather and/or obstructions to visibility.


CITY           SKY/WX    TMP DP  RH WIND       PRES   REMARKS
Bloomington    MOSUNNY   91  77  63 SW16G23   29.97S HX 104
Champaign      NOT AVBL
Danville       MOSUNNY   89  76  66 SW10G16   29.95S HX 100
Decatur        SUNNY     93  74  53 SW16      29.96F HX 103
Effingham      SUNNY     96  70  43 SW14      30.00F HX 102
Flora          MOSUNNY   94  76  55 SW12      29.99F HX 107
Galesburg      SUNNY     93  78  62 SW7       29.95F HX 109
Jacksonville   SUNNY     95  73  49 SW10      29.95F HX 104
Lacon          MOSUNNY   92  78  64 NW6       29.94S HX 107
Lawrenceville  SUNNY     94  74  52 SW10      29.99F HX 104
Litchfield     SUNNY     93  73  52 SW6       29.99F HX 101
$$


CITY           SKY/WX    TMP DP  RH WIND       PRES   REMARKS
Lincoln        SUNNY     95  80  61 SW7G16    29.94F HX 113
Macomb         SUNNY     92  78  61 SW12      29.96F HX 107
Mattoon        MOSUNNY   92  74  55 SW12      29.97F HX 101
Mt Carmel AP   MOSUNNY   89  75  62 SW10      29.99F HX  99
Olney-Noble AP MOSUNNY   93  71  49 S8        29.99F HX 100
Paris AP       CLOUDY    89  78  70 SW8       29.99S HX 102
Peoria         SUNNY     95  77  55 W9        29.94S HX 109
Pontiac        MOSUNNY   89  82  78 NW8       29.96S HX 109
Rantoul        PTSUNNY   92  80  67 SW8       29.96S HX 112
Robinson       MOSUNNY   91  77  64 SW12      29.98F HX 104
Springfield    SUNNY     96  79  57 SW8       29.95F HX 114
Taylorville    SUNNY     93  73  52 SW14      29.97F HX 101
$$

...REGIONAL REPORTS...


CITY           SKY/WX    TMP DP  RH WIND       PRES   REMARKS
Chicago O`Hare CLOUDY    83  72  69 NE9       29.95S HX  88
Kankakee       SUNNY     87  76  70 NW9       29.96F HX  98
Moline         SUNNY     93  77  59 NW7       29.93F HX 107
Mount Sterling SUNNY     95  75  52 SW10      29.95F HX 107
Mount Vernon   MOSUNNY   96  75  50 S10       30.01F HX 108
Pittsfield     SUNNY     96  75  50 SW10      29.98F HX 108
Quincy         SUNNY     98  74  45 SW14      29.95F HX 109
Rockford       CLOUDY    87  75  67 NW6       29.98S HX  96
$$


CITY           SKY/WX    TMP DP  RH WIND       PRES   REMARKS
Burlington     SUNNY     94  80  64 SW9       29.93F HX 113
Cedar Rapids   MOSUNNY   92  80  68 N5        29.94F HX 110
Des Moines     MOSUNNY   99  73  43 VRB5      29.91F HX 109
Kirksville     SUNNY     94  78  60 SW9       29.98F HX 110
Ottumwa        SUNNY     99  75  46 W8        29.92F HX 112
St Louis       MOSUNNY  101  67  32 VRB7      29.99F HX 106
$$


CITY           SKY/WX    TMP DP  RH WIND       PRES   REMARKS
Terre Haute    CLOUDY    90  74  59 SW9       29.98F HX  99
Evansville     PTSUNNY   94  69  44 SW9       30.01F HX  99
Indianapolis   PTSUNNY   89  76  65 SW10      29.98F HX 100
Lafayette      PTSUNNY   85  77  77 SW6       29.95F HX  95
Madison        CLOUDY    87  73  62 N7        29.96S HX  94
Milwaukee      PTSUNNY   77  70  79 SE9       29.95F
$$






USA.gov is the U.S. government's official web portal to all federal, state and local government web resources and services.